Weather History for Grayling, MI

Change the Weather History Date:

Friday, July 26, 2013

  Actual Average (KHTL) Record (KHTL)
Temperature  
Mean Temperature 66 °F 67 °F  
Max Temperature 76 °F 79 °F 99 °F (1941)
Min Temperature 57 °F 55 °F 33 °F (1920)
Degree Days  
Heating Degree Days 0 1  
Month to date heating degree days 38  
Since 1 June heating degree days 162  
Since 1 July heating degree days 38  
Cooling Degree Days 2 4  
Month to date cooling degree days 101  
Year to date cooling degree days 176  
Since 1 June cooling degree days 160  
Growing Degree Days 16 (Base 50)    
Moisture  
Dew Point 59 °F    
Average Humidity 85    
Maximum Humidity 100    
Minimum Humidity 63    
Precipitation  
Precipitation 0.00 in 0.10 in 2.22 in (1960)
Month to date precipitation 2.27  
Year to date precipitation 15.23  
Sea Level Pressure  
Sea Level Pressure 29.98 in    
Wind  
Wind Speed 5 mph (South)    
Max Wind Speed 16 mph    
Max Gust Speed 24 mph    
Visibility 10 miles    
Events Rain    
T = Trace of Precipitation, MM = Missing Value Source: NWS Daily Summary

Daily Weather History Graph

Daily Weather History Graph

Search for Another Location

Airport:

Trip Planner

Search our weather history database for the weather conditions in past years. The results will help you decide how hot, cold, wet, or windy it might be!

Date:

Astronomy

Jul. 26, 2013 Rise Set
Actual Time 6:18 AM EDT 9:11 PM EDT
Civil Twilight 5:44 AM EDT 9:45 PM EDT
Nautical Twilight 5:01 AM EDT 10:28 PM EDT
Astronomical Twilight 4:09 AM EDT 11:19 PM EDT
Moon 11:09 PM EDT (7/26) 11:08 AM EDT (7/26)
Length of Visible Light 16h 00m
Length of Day
14h 52m
Waning Gibbous, 80% of the Moon is Illuminated
Jul 26
Waning Gibbous
Jul 29
Last Quarter
Aug 6
New
Aug 14
First Quarter
Aug 20
Full

Hourly Weather History & Observations

Time (EDT) Temp. Dew Point Humidity Pressure Visibility Wind Dir Wind Speed Gust Speed Precip Events Conditions
12:15 AM 59.5 °F 50.0 °F 71% 30.05 in 10.0 mi Calm Calm - N/A   Clear
12:34 AM 58.6 °F 50.2 °F 73% 30.05 in 10.0 mi Calm Calm - N/A   Clear
12:55 AM 58.5 °F 51.3 °F 77% 30.05 in 10.0 mi Calm Calm - N/A   Clear
1:15 AM 58.5 °F 51.8 °F 79% 30.04 in 10.0 mi SSE 4.6 mph - N/A   Clear
1:35 AM 60.1 °F 51.8 °F 74% 30.05 in 10.0 mi Calm Calm - N/A   Clear
1:55 AM 59.9 °F 52.0 °F 75% 30.04 in 10.0 mi Calm Calm - N/A   Mostly Cloudy
2:15 AM 60.6 °F 52.7 °F 75% 30.04 in 10.0 mi Calm Calm - N/A   Overcast
2:35 AM 61.0 °F 52.0 °F 72% 30.05 in 7.0 mi WSW 6.9 mph - N/A Rain Rain
2:55 AM 58.5 °F 54.7 °F 87% 30.04 in 10.0 mi Calm Calm - N/A Rain Rain
3:15 AM 58.5 °F 54.9 °F 88% 30.03 in 10.0 mi South 3.5 mph - N/A Rain Light Rain
3:35 AM 58.5 °F 54.9 °F 88% 30.03 in 10.0 mi SSE 3.5 mph - N/A Rain Rain
3:55 AM 58.5 °F 55.0 °F 88% 30.03 in 10.0 mi SSW 4.6 mph - N/A   Overcast
4:15 AM 58.5 °F 55.2 °F 89% 30.03 in 10.0 mi SSW 9.2 mph - N/A Rain Light Rain
4:35 AM 58.3 °F 55.6 °F 91% 30.03 in 10.0 mi South 5.8 mph - N/A   Drizzle
4:55 AM 57.4 °F 54.7 °F 91% 30.03 in 10.0 mi SW 4.6 mph - N/A Rain Rain
5:15 AM 58.1 °F 56.1 °F 93% 30.03 in 5.0 mi South 8.1 mph - N/A Rain Heavy Rain
5:35 AM 58.5 °F 57.6 °F 97% 30.02 in 10.0 mi SSE 3.5 mph - N/A   Mostly Cloudy
5:55 AM 58.5 °F 56.8 °F 94% 30.01 in 10.0 mi SSE 6.9 mph - N/A   Scattered Clouds
6:15 AM 58.5 °F 55.8 °F 91% 30.01 in 10.0 mi SSE 6.9 mph - N/A   Scattered Clouds
6:35 AM 58.5 °F 56.3 °F 93% 30.01 in 10.0 mi SSE 4.6 mph - N/A   Clear
6:55 AM 58.5 °F 56.7 °F 94% 30.02 in 10.0 mi Calm Calm - N/A   Mostly Cloudy
7:15 AM 58.5 °F 57.2 °F 96% 30.01 in 10.0 mi SSE 3.5 mph - N/A   Mostly Cloudy
7:35 AM 58.5 °F 57.2 °F 96% 30.01 in 10.0 mi SSE 5.8 mph - N/A   Scattered Clouds
7:55 AM 58.5 °F 57.4 °F 96% 30.01 in 10.0 mi SSE 3.5 mph - N/A   Clear
8:15 AM 60.6 °F 57.6 °F 90% 30.01 in 10.0 mi SSE 5.8 mph - N/A   Clear
8:35 AM 62.4 °F 58.1 °F 86% 30.01 in 10.0 mi SSE 4.6 mph - N/A   Clear
8:55 AM 63.1 °F 58.5 °F 85% 30.01 in 10.0 mi Calm Calm - N/A   Scattered Clouds
9:15 AM 63.5 °F 58.8 °F 85% 30.01 in 10.0 mi South 8.1 mph - N/A   Mostly Cloudy
9:35 AM 66.2 °F 60.8 °F 83% 30.01 in 10.0 mi South 4.6 mph - N/A   Scattered Clouds
9:55 AM 66.2 °F 61.0 °F 83% 30.01 in 10.0 mi South 6.9 mph - N/A   Mostly Cloudy
10:15 AM 68.4 °F 63.1 °F 83% 30.01 in 10.0 mi South 4.6 mph - N/A   Mostly Cloudy
10:35 AM 68.5 °F 62.8 °F 82% 30.00 in 10.0 mi South 6.9 mph - N/A   Scattered Clouds
10:55 AM 68.7 °F 61.2 °F 77% 30.00 in 10.0 mi South 8.1 mph - N/A   Mostly Cloudy
11:15 AM 70.7 °F 63.0 °F 76% 30.00 in 10.0 mi South 9.2 mph - N/A   Mostly Cloudy
11:35 AM 71.4 °F 64.0 °F 77% 29.99 in 10.0 mi South 9.2 mph - N/A   Scattered Clouds
11:55 AM 73.6 °F 63.0 °F 69% 29.99 in 10.0 mi SSW 10.4 mph - N/A   Clear
12:15 PM 73.6 °F 62.6 °F 68% 29.99 in 10.0 mi South 9.2 mph 18.4 mph N/A   Scattered Clouds
12:35 PM 73.8 °F 62.4 °F 68% 29.98 in 10.0 mi South 12.7 mph 19.6 mph N/A   Mostly Cloudy
12:55 PM 73.6 °F 62.1 °F 67% 29.97 in 10.0 mi South 9.2 mph - N/A   Mostly Cloudy
1:15 PM 76.1 °F 62.8 °F 63% 29.97 in 10.0 mi South 13.8 mph 19.6 mph N/A   Mostly Cloudy
1:35 PM 73.6 °F 61.0 °F 65% 29.96 in 10.0 mi SSW 9.2 mph 19.6 mph N/A   Overcast
1:55 PM 73.6 °F 60.8 °F 64% 29.96 in 10.0 mi SSW 11.5 mph 24.2 mph N/A   Overcast
2:15 PM 73.6 °F 61.9 °F 67% 29.96 in 10.0 mi South 13.8 mph 20.7 mph N/A   Overcast
2:35 PM 72.1 °F 61.7 °F 70% 29.96 in 10.0 mi SSW 11.5 mph 20.7 mph N/A   Overcast
2:55 PM 73.6 °F 62.2 °F 68% 29.95 in 10.0 mi South 16.1 mph 20.7 mph N/A   Mostly Cloudy
3:15 PM 71.1 °F 61.9 °F 73% 29.95 in 10.0 mi SSW 13.8 mph 18.4 mph N/A Rain Light Rain
3:35 PM 69.1 °F 60.6 °F 74% 29.95 in 10.0 mi South 10.4 mph 18.4 mph N/A   Overcast
3:55 PM 68.9 °F 60.3 °F 74% 29.95 in 10.0 mi SSW 12.7 mph 17.3 mph N/A   Overcast
4:15 PM 69.1 °F 61.2 °F 76% 29.94 in 10.0 mi SSW 10.4 mph 16.1 mph N/A Rain Light Rain
4:35 PM 71.1 °F 62.6 °F 75% 29.94 in 10.0 mi SSW 9.2 mph 17.3 mph N/A Rain Light Rain
4:55 PM 68.5 °F 64.6 °F 87% 29.94 in 7.0 mi SSW 10.4 mph 19.6 mph N/A Rain Rain
5:15 PM 68.5 °F 67.1 °F 95% 29.94 in 7.0 mi South 5.8 mph - N/A Rain Rain
5:35 PM 68.5 °F 66.9 °F 95% 29.94 in 10.0 mi South 8.1 mph - N/A   Light Drizzle
5:55 PM 67.1 °F 63.9 °F 89% 29.94 in 10.0 mi SW 13.8 mph 21.9 mph N/A Rain Light Rain
6:15 PM 65.8 °F 61.9 °F 87% 29.95 in 10.0 mi SW 10.4 mph 17.3 mph N/A Rain Rain
6:35 PM 64.6 °F 61.7 °F 90% 29.94 in 10.0 mi SSW 8.1 mph - N/A   Overcast
6:55 PM 63.5 °F 61.3 °F 93% 29.94 in 7.0 mi SSW 5.8 mph - N/A Rain Light Rain
7:15 PM 63.5 °F 61.9 °F 94% 29.93 in 10.0 mi SSW 3.5 mph - N/A Rain Light Rain
7:35 PM 62.2 °F 61.2 °F 96% 29.93 in 10.0 mi SSW 4.6 mph - N/A Rain Light Rain
7:54 PM 62.1 °F 61.0 °F 96% 29.92 in 10.0 mi South 5.8 mph - N/A Rain Light Rain
8:15 PM 61.9 °F 60.6 °F 96% 29.91 in 10.0 mi SSW 3.5 mph - N/A   Overcast
8:35 PM 61.7 °F 60.6 °F 96% 29.91 in 10.0 mi South 3.5 mph - N/A   Overcast
8:54 PM 61.3 °F 60.1 °F 96% 29.91 in 10.0 mi South 3.5 mph - N/A Rain Rain
9:15 PM 61.7 °F 60.3 °F 95% 29.91 in 10.0 mi SW 3.5 mph - N/A   Overcast
9:35 PM 61.3 °F 60.1 °F 96% 29.90 in 10.0 mi South 3.5 mph - N/A Rain Light Rain
9:55 PM 61.3 °F 60.1 °F 96% 29.91 in 10.0 mi South 3.5 mph - N/A   Overcast
10:15 PM 61.3 °F 59.9 °F 95% 29.91 in 10.0 mi SSW 3.5 mph - N/A   Overcast
10:35 PM 61.2 °F 59.9 °F 96% 29.90 in 7.0 mi South 4.6 mph - N/A Rain Heavy Rain
10:55 PM 61.0 °F 60.6 °F 99% 29.91 in 10.0 mi Calm Calm - N/A Rain Light Rain
11:15 PM 60.6 °F 60.3 °F 99% 29.90 in 10.0 mi Calm Calm - N/A Rain Light Rain
11:35 PM 60.8 °F 60.8 °F 100% 29.89 in 10.0 mi South 6.9 mph - N/A   Overcast
11:55 PM 60.6 °F 60.6 °F 100% 29.87 in 10.0 mi South 3.5 mph - N/A   Overcast